Weather History for KOOA - November, 2012

Change the Weather History Date:

Thursday, November 22, 2012

  Actual Average (KOTM) Record (KOTM)
Temperature  
Mean Temperature 53 °F 36 °F  
Max Temperature 66 °F 45 °F 67 °F (1966)
Min Temperature 39 °F 26 °F -8 °F (1937)
Degree Days  
Heating Degree Days 12 29  
Month to date heating degree days 520  
Since 1 July heating degree days 1044  
Cooling Degree Days 0 0  
Month to date cooling degree days 0  
Year to date cooling degree days 938  
Growing Degree Days 3 (Base 50)    
Moisture  
Dew Point 39 °F    
Average Humidity 61    
Maximum Humidity 74    
Minimum Humidity 41    
Precipitation  
Precipitation 0.00 in 0.07 in 1.64 in (1963)
Month to date precipitation 1.81  
Year to date precipitation 35.13  
Sea Level Pressure  
Sea Level Pressure 29.90 in    
Wind  
Wind Speed 16 mph (SW)    
Max Wind Speed 33 mph    
Max Gust Speed 41 mph    
Visibility 10 miles    
Events      
T = Trace of Precipitation, MM = Missing Value Source: NWS Daily Summary

Daily Weather History Graph

Daily Weather History Graph

Search for Another Location

Airport or City:

Trip Planner

Search our weather history database for the weather conditions in past years. The results will help you decide how hot, cold, wet, or windy it might be!

Date:

Astronomy

Nov. 22, 2012 Rise Set
Actual Time 7:06 AM CST 4:45 PM CST
Civil Twilight 6:36 AM CST 5:15 PM CST
Nautical Twilight 6:02 AM CST 5:49 PM CST
Astronomical Twilight 5:29 AM CST 6:22 PM CST
Moon 1:33 PM CST (11/22) 1:24 AM CST (11/22)
Length of Visible Light 10h 38m
Length of Day
9h 38m
Waxing Gibbous, 71% of the Moon is Illuminated
Nov 22
Waxing Gibbous
Nov 28
Full
Dec 6
Last Quarter
Dec 13
New
Dec 19
First Quarter

Hourly Weather History & Observations

Time (CST) Temp. Windchill Dew Point Humidity Pressure Visibility Wind Dir Wind Speed Gust Speed Precip Events Conditions
12:15 AM 49.3 °F - 39.7 °F 70% 29.96 in 10.0 mi South 15.0 mph - N/A   Clear
12:35 AM 49.3 °F - 39.7 °F 70% 29.96 in 10.0 mi South 13.8 mph - N/A   Clear
12:55 AM 48.2 °F - 39.4 °F 72% 29.95 in 10.0 mi South 13.8 mph - N/A   Clear
1:15 AM 48.4 °F - 39.0 °F 70% 29.94 in 10.0 mi South 12.7 mph - N/A   Clear
1:35 AM 47.5 °F - 38.5 °F 71% 29.94 in 10.0 mi South 11.5 mph - N/A   Clear
1:55 AM 46.9 °F - 38.3 °F 72% 29.93 in 10.0 mi SSE 11.5 mph - N/A   Clear
2:15 AM 46.4 °F 41.1 °F 37.9 °F 72% 29.92 in 10.0 mi South 11.5 mph - N/A   Clear
2:35 AM 46.9 °F - 37.8 °F 70% 29.92 in 10.0 mi South 12.7 mph - N/A   Clear
2:55 AM 47.8 °F - 37.8 °F 68% 29.91 in 10.0 mi SSE 12.7 mph - N/A   Clear
3:15 AM 48.6 °F - 37.6 °F 66% 29.90 in 10.0 mi South 15.0 mph - N/A   Clear
3:35 AM 48.6 °F - 37.4 °F 65% 29.89 in 10.0 mi South 16.1 mph - N/A   Clear
3:55 AM 47.7 °F - 37.2 °F 67% 29.88 in 10.0 mi South 13.8 mph - N/A   Clear
4:15 AM 48.2 °F - 37.0 °F 65% 29.87 in 10.0 mi South 15.0 mph - N/A   Clear
4:35 AM 48.7 °F - 37.0 °F 64% 29.86 in 10.0 mi South 16.1 mph - N/A   Clear
4:55 AM 49.3 °F - 37.4 °F 64% 29.86 in 10.0 mi South 16.1 mph - N/A   Clear
5:15 AM 49.5 °F - 37.4 °F 63% 29.85 in 10.0 mi South 16.1 mph - N/A   Scattered Clouds
5:35 AM 50.5 °F - 37.8 °F 62% 29.85 in 10.0 mi South 15.0 mph - N/A   Mostly Cloudy
5:55 AM 50.9 °F - 37.8 °F 61% 29.84 in 10.0 mi South 15.0 mph - N/A   Mostly Cloudy
6:15 AM 50.9 °F - 37.9 °F 61% 29.84 in 10.0 mi South 16.1 mph - N/A   Mostly Cloudy
6:35 AM 50.4 °F - 37.9 °F 62% 29.83 in 10.0 mi South 15.0 mph - N/A   Clear
6:55 AM 50.4 °F - 38.3 °F 63% 29.84 in 10.0 mi South 15.0 mph - N/A   Clear
7:15 AM 50.2 °F - 38.3 °F 64% 29.84 in 10.0 mi South 13.8 mph - N/A   Clear
7:35 AM 50.0 °F - 38.7 °F 65% 29.84 in 10.0 mi South 10.4 mph - N/A   Clear
7:55 AM 51.1 °F - 39.4 °F 64% 29.83 in 10.0 mi South 10.4 mph - N/A   Clear
8:15 AM 52.7 °F - 40.3 °F 63% 29.83 in 10.0 mi South 11.5 mph - N/A   Clear
8:35 AM 55.0 °F - 41.5 °F 60% 29.83 in 10.0 mi South 11.5 mph - N/A   Clear
8:55 AM 57.4 °F - 42.1 °F 57% 29.83 in 10.0 mi South 13.8 mph - N/A   Clear
9:15 AM 59.7 °F - 42.8 °F 54% 29.83 in 10.0 mi SSW 17.3 mph - N/A   Clear
9:35 AM 61.2 °F - 42.8 °F 51% 29.82 in 10.0 mi SSW 19.6 mph 24.2 mph N/A   Clear
9:55 AM 61.3 °F - 43.2 °F 51% 29.82 in 10.0 mi SSW 17.3 mph 24.2 mph N/A   Clear
10:15 AM 61.2 °F - 43.3 °F 52% 29.82 in 10.0 mi SSW 16.1 mph 23.0 mph N/A   Clear
10:35 AM 61.7 °F - 43.9 °F 52% 29.81 in 10.0 mi SSW 17.3 mph - N/A   Clear
10:55 AM 61.9 °F - 44.2 °F 52% 29.80 in 10.0 mi SSW 18.4 mph 27.6 mph N/A   Clear
11:15 AM 62.2 °F - 44.6 °F 52% 29.79 in 10.0 mi SSW 17.3 mph 25.3 mph N/A   Clear
11:35 AM 61.7 °F - 45.7 °F 56% 29.78 in 10.0 mi SSW 16.1 mph - N/A   Mostly Cloudy
11:55 AM 62.6 °F - 45.1 °F 53% 29.77 in 10.0 mi SSW 18.4 mph 25.3 mph N/A   Mostly Cloudy
12:15 PM 63.0 °F - 45.7 °F 53% 29.77 in 10.0 mi SSW 19.6 mph 23.0 mph N/A   Scattered Clouds
12:35 PM 63.3 °F - 45.9 °F 53% 29.77 in 10.0 mi SSW 17.3 mph 25.3 mph N/A   Clear
12:55 PM 63.1 °F - 46.0 °F 54% 29.76 in 10.0 mi SSW 17.3 mph 25.3 mph N/A   Clear
1:15 PM 63.5 °F - 46.6 °F 54% 29.76 in 10.0 mi SW 13.8 mph - N/A   Scattered Clouds
1:35 PM 63.9 °F - 46.8 °F 54% 29.75 in 10.0 mi SW 19.6 mph 24.2 mph N/A   Clear
1:55 PM 64.4 °F - 47.3 °F 54% 29.75 in 10.0 mi SW 13.8 mph - N/A   Clear
2:15 PM 64.8 °F - 48.0 °F 55% 29.76 in 10.0 mi SW 16.1 mph 20.7 mph N/A   Clear
2:35 PM 65.3 °F - 48.6 °F 55% 29.76 in 10.0 mi SW 13.8 mph - N/A   Clear
2:55 PM 65.5 °F - 49.1 °F 55% 29.77 in 10.0 mi WSW 13.8 mph - N/A   Clear
3:15 PM 66.7 °F - 49.5 °F 54% 29.77 in 10.0 mi West 20.7 mph 25.3 mph N/A   Scattered Clouds
3:35 PM 66.0 °F - 48.0 °F 52% 29.79 in 10.0 mi West 23.0 mph - N/A   Scattered Clouds
3:55 PM 65.3 °F - 45.5 °F 49% 29.81 in 10.0 mi West 16.1 mph 27.6 mph N/A   Clear
4:15 PM 62.8 °F - 38.8 °F 41% 29.83 in 10.0 mi WNW 27.6 mph 34.5 mph N/A   Clear
4:35 PM 59.7 °F - 36.7 °F 42% 29.85 in 10.0 mi WNW 21.9 mph 29.9 mph N/A   Clear
4:55 PM 58.1 °F - 37.6 °F 46% 29.87 in 10.0 mi WNW 21.9 mph 26.5 mph N/A   Clear
5:15 PM 57.0 °F - 38.8 °F 51% 29.89 in 10.0 mi WNW 18.4 mph 25.3 mph N/A   Clear
5:35 PM 55.2 °F - 39.0 °F 54% 29.92 in 10.0 mi WNW 33.4 mph 41.4 mph N/A   Clear
5:55 PM 52.7 °F - 38.5 °F 58% 29.94 in 10.0 mi NW 23.0 mph 32.2 mph N/A   Clear
6:15 PM 51.1 °F - 37.9 °F 61% 29.97 in 10.0 mi NW 19.6 mph 38.0 mph N/A   Clear
6:35 PM 49.5 °F - 37.4 °F 63% 29.99 in 10.0 mi NW 23.0 mph 28.8 mph N/A   Clear
6:55 PM 48.4 °F - 36.5 °F 64% 30.00 in 10.0 mi NW 18.4 mph 25.3 mph N/A   Clear
7:15 PM 47.7 °F - 35.8 °F 63% 30.01 in 10.0 mi WNW 20.7 mph 27.6 mph N/A   Clear
7:35 PM 46.6 °F - 35.6 °F 66% 30.02 in 10.0 mi NW 21.9 mph 26.5 mph N/A   Clear
7:55 PM 45.7 °F 37.8 °F 35.1 °F 66% 30.04 in 10.0 mi NW 20.7 mph 25.3 mph N/A   Clear
8:15 PM 44.6 °F 36.6 °F 34.7 °F 68% 30.06 in 10.0 mi NW 19.6 mph 26.5 mph N/A   Clear
8:35 PM 43.2 °F 35.6 °F 33.8 °F 70% 30.07 in 10.0 mi NW 16.1 mph 23.0 mph N/A   Clear
8:55 PM 42.3 °F 34.8 °F 33.3 °F 70% 30.08 in 10.0 mi NW 15.0 mph - N/A   Clear
9:15 PM 41.0 °F 33.5 °F 32.9 °F 73% 30.09 in 10.0 mi WNW 13.8 mph - N/A   Clear
9:35 PM 40.5 °F 32.8 °F 32.7 °F 74% 30.09 in 10.0 mi WNW 13.8 mph - N/A   Clear
9:55 PM 40.5 °F 32.1 °F 32.7 °F 74% 30.09 in 10.0 mi WNW 16.1 mph 19.6 mph N/A   Clear
10:15 PM 40.5 °F 32.8 °F 32.9 °F 74% 30.10 in 10.0 mi WNW 13.8 mph - N/A   Scattered Clouds
10:35 PM 40.8 °F 31.4 °F 32.9 °F 73% 30.10 in 10.0 mi WNW 20.7 mph 28.8 mph N/A   Scattered Clouds
10:55 PM 41.2 °F 29.5 °F 31.8 °F 69% 30.10 in 10.0 mi WNW 33.4 mph 40.3 mph N/A   Clear
11:15 PM 40.8 °F 31.1 °F 30.7 °F 67% 30.10 in 10.0 mi WNW 21.9 mph - N/A   Clear
11:35 PM 40.3 °F 30.2 °F 29.8 °F 66% 30.10 in 10.0 mi WNW 23.0 mph 31.1 mph N/A   Clear
11:55 PM 39.4 °F 29.5 °F 29.5 °F 68% 30.10 in 10.0 mi WNW 20.7 mph 29.9 mph N/A   Clear